Probability
12 12 13 13 13 12 12 10 6 2 0 0 0 0 0 0 0 0 0 1 0 0 0 0 0 0 0 0 0 0 0 0 0 0 0 0 0 0 0 0 0 0 0
13 13 14 15 14 14 13 10 6 3 1 0 0 0 0 0 0 0 0 1 1 0 0 0 0 0 0 0 0 0 0 0 0 0 0 0 0 0 0 0 0 0 0
13 13 15 17 16 15 14 11 6 3 2 1 0 0 0 0 0 0 0 1 1 1 1 0 0 0 0 0 0 0 0 0 0 0 0 0 0 0 0 0 0 0 0
14 14 15 17 17 16 15 12 7 4 4 2 1 1 1 1 0 0 0 0 1 2 2 1 0 0 1 2 1 0 0 0 0 0 0 0 0 0 0 0 0 0 0
16 16 16 18 18 16 15 13 9 6 5 4 2 1 1 1 1 0 0 0 0 1 2 2 1 1 1 3 2 1 0 0 0 0 0 0 0 0 0 0 0 0 0
17 17 17 17 16 15 14 12 10 7 6 6 4 2 1 1 1 0 0 0 0 1 2 2 2 2 2 2 2 1 1 1 0 0 0 0 0 0 0 0 0 0 0
18 18 17 16 16 15 14 12 10 8 8 8 6 3 1 0 0 0 0 0 0 0 1 1 2 3 3 2 1 1 2 2 1 0 0 0 0 0 0 0 0 0 0
19 19 17 16 16 16 15 12 11 10 11 10 7 4 2 1 0 0 0 0 0 0 0 0 1 2 3 3 2 3 4 3 1 0 0 0 0 0 0 0 0 0 0
20 20 18 17 16 16 15 13 12 12 12 10 6 4 3 2 1 0 0 0 0 0 0 0 0 1 2 4 4 5 4 2 0 0 0 0 1 1 1 1 0 0 0
20 19 18 17 16 15 13 12 11 11 9 7 5 3 3 2 1 0 0 0 0 0 0 0 0 1 2 2 3 5 4 1 0 0 0 0 1 2 3 3 2 0 0
17 17 17 17 15 13 11 9 9 8 7 5 3 3 3 2 1 0 0 0 0 0 0 0 0 1 1 1 1 3 3 1 1 0 0 0 1 3 5 5 4 2 1
12 13 14 15 13 11 9 8 7 7 6 4 3 3 3 2 1 0 0 0 0 0 0 0 0 1 1 0 0 1 2 2 2 1 0 1 4 5 6 6 6 4 2
7 8 11 12 12 10 9 9 8 7 6 5 4 3 3 2 1 0 0 0 0 0 0 0 0 0 0 0 1 2 2 4 4 3 1 2 6 7 6 6 6 5 2
4 5 8 10 11 11 11 10 9 8 7 6 5 4 3 3 1 0 0 0 0 0 0 0 0 0 0 0 1 2 2 3 4 4 3 3 5 7 7 6 6 6 4
3 4 6 8 9 10 10 9 7 6 5 4 4 3 3 3 2 0 0 0 0 0 1 0 0 0 0 0 1 1 1 1 3 3 2 2 4 6 6 5 6 8 7
3 4 6 6 6 6 6 5 4 3 3 3 2 3 3 2 1 0 0 0 0 0 0 0 0 0 0 0 0 0 0 0 1 2 1 0 2 4 5 4 6 9 11
3 4 5 5 3 2 1 1 1 1 2 1 1 1 2 1 0 0 0 0 0 0 0 0 0 0 0 0 0 0 0 0 0 0 0 0 0 2 3 5 6 9 12
3 3 3 2 1 0 0 0 0 0 0 0 0 0 0 0 0 0 0 0 0 0 0 0 0 0 0 0 0 0 0 0 0 0 0 0 0 0 2 4 5 6 9
2 2 1 0 0 0 0 0 0 0 0 0 0 0 0 0 0 0 0 0 0 0 0 0 0 0 0 0 0 0 0 0 0 0 0 0 0 0 0 1 2 2 3
1 1 0 0 0 0 0 0 0 0 0 0 0 0 0 0 0 0 0 0 0 0 0 0 0 0 0 0 0 0 0 0 0 0 0 0 0 0 0 0 0 0 0
0 0 0 0 0 0 0 0 0 0 0 0 0 0 0 0 0 0 0 0 0 0 0 0 0 0 0 0 0 0 0 0 0 0 0 0 0 0 0 0 0 0 0
0 0 0 0 0 0 0 0 0 0 0 0 0 0 0 0 0 0 0 0 0 0 0 0 0 0 0 0 0 0 0 0 0 0 0 0 0 0 0 0 0 0 0
0 0 0 0 0 0 0 0 0 0 0 0 0 0 0 0 0 0 0 0 0 0 0 0 0 0 0 0 0 0 0 0 0 0 0 0 0 0 0 0 0 0 0
0 0 0 0 0 0 0 0 0 0 0 0 0 0 0 0 0 0 0 0 0 0 0 0 0 0 0 0 0 0 0 0 0 0 0 0 0 0 0 0 0 0 0
0 0 0 0 0 0 0 0 0 0 0 0 0 0 0 0 0 0 0 0 0 0 0 0 0 0 0 0 0 0 0 0 0 0 0 0 0 0 0 0 0 0 0
0 0 0 0 0 0 0 0 0 0 0 0 0 0 0 0 0 0 0 0 0 0 0 0 0 0 0 0 0 0 0 0 0 0 0 0 0 0 0 0 0 0 0
Wind_Speed
6 8 9 8 8 7 7 7 7 7 6 6 6 6 5 5 5 4 4 3 3 2 2 2 2 3 3 3 3 3 4 4 4 5 5 5 5 5 5 5 4 5 8
7 9 10 8 8 7 7 7 7 6 6 6 6 5 5 4 4 4 4 4 3 2 1 1 2 2 2 2 2 2 2 2 2 2 2 3 3 4 5 5 5 4 7
8 8 9 8 8 7 7 7 6 6 6 5 5 5 5 4 4 3 3 3 3 3 1 1 1 1 1 1 1 1 1 1 1 1 2 1 3 4 3 4 4 5 6
8 8 8 8 7 7 7 7 6 6 5 5 5 5 5 4 4 3 4 3 3 3 3 2 1 0 1 1 1 2 3 3 3 4 3 2 3 5 4 3 3 3 3
7 8 9 8 8 7 7 7 6 6 6 6 5 5 5 4 4 4 4 4 4 4 3 3 2 1 1 1 2 3 4 4 5 4 3 1 2 6 5 4 3 3 3
7 7 8 8 7 7 7 7 7 6 6 6 6 5 5 5 5 5 4 4 4 4 3 3 3 2 3 3 4 5 5 5 5 3 3 2 2 6 6 4 4 3 3
6 6 7 8 7 7 7 6 6 6 6 6 6 6 5 5 4 4 5 4 4 4 4 4 4 4 4 4 6 6 6 6 4 3 3 2 2 6 6 5 4 4 4
6 6 5 7 7 6 6 7 6 7 7 6 6 6 5 5 4 4 4 4 4 4 4 4 5 5 5 5 6 7 7 6 5 5 3 3 4 7 6 6 5 5 5
6 5 4 3 4 5 6 7 6 6 6 6 6 6 6 5 4 4 4 4 5 5 5 5 5 6 6 6 7 7 7 7 5 4 5 2 5 8 7 7 7 7 6
6 5 4 3 3 2 3 5 5 4 5 5 5 6 6 5 4 3 3 4 5 5 5 6 6 7 7 7 8 8 8 7 6 5 3 3 6 8 8 8 8 8 8
6 5 4 4 3 3 2 3 3 3 4 4 4 5 4 2 2 2 3 4 5 5 6 6 7 8 8 8 8 9 7 4 5 4 3 5 7 8 9 9 9 10 10
5 5 5 4 4 3 3 2 1 2 2 2 3 3 2 3 3 4 4 4 5 5 6 7 8 8 6 4 5 7 4 5 5 4 4 7 9 9 10 10 10 10 11
5 5 4 4 4 4 3 2 2 2 2 2 3 4 3 3 3 2 2 3 3 4 3 5 5 4 4 3 3 3 4 4 3 3 4 7 9 11 11 11 11 11 12
5 4 4 3 4 4 3 2 2 2 2 2 3 4 3 3 3 3 2 2 2 2 3 3 3 4 5 4 4 3 4 3 3 3 4 7 8 10 11 11 11 11 12
5 4 4 4 4 3 3 3 3 3 3 3 3 4 4 3 3 3 3 3 3 3 3 4 4 5 5 5 4 4 4 4 4 4 3 7 9 10 11 12 12 12 12
5 4 3 4 4 4 3 3 2 2 3 3 3 4 5 3 3 3 3 4 4 4 4 4 5 5 4 4 5 5 5 5 4 4 3 4 8 9 10 12 12 12 12
4 3 3 3 4 4 4 3 3 3 3 3 3 5 5 5 4 4 3 4 4 4 5 4 5 5 5 5 5 6 5 5 4 5 3 2 3 6 8 10 11 12 12
3 3 4 4 4 4 3 3 2 3 3 3 3 4 5 5 5 4 3 4 5 5 4 4 4 5 5 5 5 5 5 4 5 4 3 2 1 1 4 7 8 10 11
3 3 4 3 3 3 2 1 2 2 3 3 3 3 4 5 5 4 3 4 5 4 4 5 5 5 5 6 6 6 5 4 4 3 2 2 1 0 1 3 5 6 7
3 3 3 3 3 2 2 1 2 2 2 3 3 4 5 4 5 4 3 4 4 4 4 4 5 5 4 5 7 6 5 4 3 2 2 1 2 1 1 1 1 2 5
3 3 3 3 2 2 1 1 1 2 2 2 2 4 5 5 5 4 4 4 4 3 4 5 4 5 5 5 4 5 4 4 2 2 2 2 2 2 2 2 1 1 2
3 3 3 2 2 2 1 1 0 0 0 0 1 2 3 4 4 4 4 3 4 3 4 5 5 4 4 5 3 4 4 4 4 3 2 2 3 3 3 3 2 2 1
3 3 2 2 2 1 1 0 0 0 0 1 1 1 2 3 3 4 4 4 4 3 3 4 4 5 4 4 3 2 3 3 5 4 3 3 4 4 4 4 4 3 3
4 3 3 2 1 1 1 0 0 0 1 1 0 1 1 2 2 3 3 4 3 3 3 4 4 3 3 4 3 3 2 2 3 4 4 4 5 5 5 5 5 4 3
4 4 3 3 2 2 1 1 1 1 1 1 1 1 1 1 1 2 3 3 3 3 3 4 4 4 3 3 3 3 3 3 2 3 5 5 5 4 4 4 3 3 4
3 4 3 3 3 3 2 2 2 2 2 1 1 1 1 1 1 1 2 2 3 2 3 3 3 3 3 3 3 2 2 2 3 2 4 5 5 4 5 3 2 2 3
Wind_Direction
99 104 90 82 76 71 69 69 67 65 60 56 53 50 49 50 49 46 40 44 53 62 72 68 71 74 76 73 69 76 72 68 67 68 65 64 72 74 71 68 65 80 93
104 106 90 83 78 71 68 66 62 57 54 51 48 44 42 42 39 39 36 32 33 39 53 62 67 79 78 85 92 97 93 91 90 86 87 79 82 81 77 64 58 81 95
102 103 93 79 76 69 65 64 61 56 49 45 41 40 35 30 26 22 21 24 22 15 11 32 64 76 80 88 123 148 177 196 236 257 246 195 142 124 103 83 79 82 90
101 103 95 80 76 69 64 61 58 54 47 41 36 34 27 20 12 14 16 11 7 8 11 358 333 70 135 131 183 211 225 244 264 265 249 221 165 144 137 124 118 106 97
94 98 93 80 74 69 65 60 54 49 42 38 33 26 19 14 13 11 10 10 3 357 1 0 331 281 236 225 239 237 242 255 264 259 262 249 132 146 150 150 146 136 124
91 93 97 82 75 70 66 61 54 46 39 34 28 21 14 10 8 7 7 5 358 352 347 337 324 286 257 247 248 247 249 258 264 247 248 237 162 155 159 164 176 179 170
87 92 99 90 82 75 70 62 54 47 41 36 29 21 12 6 3 1 1 355 343 334 328 325 310 301 274 256 253 252 252 262 249 247 243 229 176 169 177 183 193 201 202
81 89 94 86 85 80 76 66 55 46 39 35 30 22 11 1 355 352 351 349 331 321 315 307 303 296 287 269 260 256 253 254 255 247 237 221 180 178 192 202 211 214 219
73 78 81 85 82 72 78 72 61 52 40 31 27 18 3 352 347 350 350 349 340 320 310 303 296 290 282 273 265 260 255 250 253 252 249 219 183 190 205 212 220 225 228
68 67 68 61 61 66 79 72 62 59 42 27 24 12 353 344 339 339 354 351 339 331 314 300 292 286 279 270 263 258 254 253 243 246 243 221 192 203 215 219 225 230 233
63 55 56 48 43 36 38 57 58 66 47 32 22 8 351 338 349 346 358 349 338 329 318 303 292 284 274 264 258 253 251 242 238 231 232 220 209 215 222 225 229 234 236
64 56 50 42 36 29 25 36 27 43 42 30 21 2 340 349 353 359 347 334 322 316 315 310 301 287 274 260 255 252 244 239 240 231 225 215 217 222 226 229 232 235 238
72 58 52 39 36 31 18 17 15 24 21 18 13 357 352 2 358 358 347 342 327 321 314 311 303 295 285 271 257 245 243 243 241 236 228 217 220 228 233 234 235 237 240
72 68 60 47 41 32 24 11 18 21 19 16 11 4 4 1 356 349 343 341 340 333 329 327 315 311 308 302 292 280 265 256 252 237 231 219 220 230 238 241 240 240 241
76 65 62 56 44 35 29 15 26 17 14 11 13 9 12 4 356 351 343 347 345 340 337 328 322 321 318 315 305 300 291 274 264 249 235 219 218 226 236 242 244 245 246
78 76 70 61 46 37 36 27 29 16 13 20 18 13 12 6 356 348 349 352 352 343 338 332 328 322 314 314 309 304 293 285 275 271 252 222 220 225 235 243 246 248 248
79 85 80 77 56 41 33 21 30 23 23 28 21 15 12 6 358 353 354 354 345 338 338 336 334 329 322 320 312 306 299 292 292 283 278 253 221 224 231 242 247 250 253
84 86 73 62 56 45 34 18 27 32 26 24 25 18 10 8 4 359 0 356 346 342 345 340 341 334 329 325 318 308 301 292 288 287 291 288 271 248 237 244 250 256 257
99 94 89 74 60 47 30 24 52 48 36 25 24 18 8 10 5 3 2 357 347 345 346 344 345 338 331 329 316 302 298 295 287 291 299 314 321 333 275 256 251 261 266
109 100 95 82 62 44 23 20 50 50 39 34 30 18 12 8 5 4 360 354 352 349 350 351 342 337 329 323 312 307 299 295 299 304 301 327 350 353 346 342 263 267 273
126 121 106 89 64 49 37 24 34 32 26 25 23 20 13 9 4 5 358 351 353 351 347 349 341 337 338 332 322 315 300 291 324 340 354 359 1 353 1 3 349 330 289
146 144 123 108 89 69 68 37 64 49 10 47 17 13 10 10 5 5 1 353 350 346 353 353 348 340 337 352 338 323 328 328 352 340 359 17 6 355 351 350 350 347 334
159 155 138 127 118 113 108 75 7 8 322 11 0 356 2 11 10 4 354 353 350 354 351 346 348 349 336 334 350 350 342 327 327 321 359 15 5 359 354 349 343 343 345
170 154 148 150 156 160 152 150 226 250 267 272 281 304 343 13 11 4 352 350 346 348 351 346 352 337 337 333 333 342 317 310 315 317 323 351 354 350 349 345 348 347 349
161 157 165 172 185 185 183 195 234 264 270 300 324 322 339 347 7 5 351 347 345 347 348 345 343 345 342 333 327 323 318 319 318 295 304 325 331 329 333 328 336 348 350
157 163 173 186 203 198 198 207 216 237 257 285 301 314 319 317 335 359 350 341 334 336 335 332 333 336 335 329 323 327 323 317 323 310 297 311 311 311 309 307 330 350 2